ONEWEB-0544, 55144

Orbit data source: Space-Track

ONEWEB-0544, 55144 is a payload satellite owned by One Web (NAA) (UK) in LEO that was launched on Tue, 10 Jan 2023 UTC via an FALCON 9 launch vehicle from the Air Force Eastern Test Range (AFETR). Payload-class satellites include a variety of spacecraft equipped with specific instruments for various scientific and technological missions. These include communications satellites like Starlink; space stations such as the ISS; scientific satellites like the Hubble; Earth observation satellites from companies like Planet Labs, Umbra, and HawkEye 360; GPS; miniature CubeSats for education and research; and military/defense satellites.

Loading next visibility...
Identifier
55144, 2023-004E
Orbit
LEO
Country
Flag of UKUK
Related business
Manufacturer
One Web
Mission
Operational Commercial Communications
Bus & Motor
ARROW, Unknown motor
Mass
148 kg wet, ~140 kg dry
Launch date (UTC)
2023-01-10 (3 years ago)
Launch vehicle
FALCON 9
Launch site
Air Force Eastern Test Range (AFETR)
Object type
Payload
Rocket body
Debris
Shape & HBR
Trap Box + 2 Pan, 6.7 m
Radar Cross Section
3.464 m², Large (>1 m²)

Expand to show TLE details & history
Last TLE update: 2 days ago

TLE from 2 days ago
0 ONEWEB-0544
1 55144U 23004E   26171.41981973  .00000038  00000-0  64789-4 0  9996
2 55144  87.9162 334.8257 0001788 100.0732 260.0602 13.18685759170123
Epoch: 2026-06-20T10:04Z
TLE epoch observation values (Epoch: 2026-06-20T10:04:32.424Z)
Latitude
-0.00002°
Longitude
-84.94411°
Altitude
1,192.878 km
Speed
7.257 km/s
True Right ascension
22h 19m 18s
True Declination
0° 00' 00"
Sunlit
Object was in daylight at epoch
Visualization orbit readout
Latitude
Unknown
Longitude
Unknown
Altitude
Unknown
Speed
Unknown
Apparent Right ascension
Unknown
Apparent Declination
Unknown
Sunlit
N/A
Visualization observer readout
Local Sidereal Time
21:31:30
Azimuth
Unknown
Elevation
Unknown
Doppler factor
Unknown
Orbital elements
Apogee altitude
1,188.204 km
Perigee altitude
1,185.499 km
Semi-major axis
7,564.988 km
Eccentricity
0.00018
Inclination
87.9162°
RAAN
334.8257°
Arg. of periapsis
100.0732°
True anomaly
260.04002°
Mean anomaly
260.0602°
Eccentric anomaly
260.05011°
Mean motion
3.29861 °/min
Orbital period
109.14 mins
BSTAR
0.000064789
Loading maneuver chart data...
Computing Atmospheric mass density...
Loading historical data...
Loading historical data...
Loading historical data...
Loading historical data...
Loading historical data...
Loading historical data...
Loading historical data...

Documentation

Showing up to 5 results
|